Time,TemperatureF,DewpointF,PressureIn,WindDirection,WindDirectionDegrees,WindSpeedMPH,WindSpeedGustMPH,Humidity,HourlyPrecipIn,Conditions,Clouds,dailyrainin,SoftwareType,DateUTC
2013-05-30 00:05:00,77.3,73.8,30.02,SE,141,20.0,21.0,89,0.00,,,0.00,Wunderground v.1.15,2013-05-30 04:05:00,
2013-05-30 00:10:00,77.3,73.8,30.02,SE,127,21.0,21.0,89,0.00,,,0.00,Wunderground v.1.15,2013-05-30 04:10:00,
2013-05-30 00:15:00,77.2,73.7,30.02,SE,124,20.0,21.0,89,0.00,,,0.00,Wunderground v.1.15,2013-05-30 04:15:00,
2013-05-30 00:20:00,77.3,73.8,30.02,SE,133,20.0,23.0,89,0.00,,,0.00,Wunderground v.1.15,2013-05-30 04:20:00,
2013-05-30 00:30:00,77.3,74.1,30.02,ESE,120,22.0,22.0,90,0.00,,,0.00,Wunderground v.1.15,2013-05-30 04:30:00,
2013-05-30 00:35:00,77.3,74.1,30.02,SE,132,23.0,23.0,90,0.00,,,0.00,Wunderground v.1.15,2013-05-30 04:35:00,
2013-05-30 00:40:00,77.2,73.7,30.02,ESE,123,23.0,23.0,89,0.00,,,0.00,Wunderground v.1.15,2013-05-30 04:40:00,
2013-05-30 00:45:00,77.3,74.1,30.02,SE,128,23.0,23.0,90,0.00,,,0.00,Wunderground v.1.15,2013-05-30 04:45:00,
2013-05-30 00:55:00,77.2,73.7,30.02,ESE,116,20.0,24.0,89,0.00,,,0.00,Wunderground v.1.15,2013-05-30 04:55:00,
2013-05-30 01:00:00,77.3,74.1,30.02,SSE,162,21.0,21.0,90,0.00,,,0.00,Wunderground v.1.15,2013-05-30 05:00:00,
2013-05-30 01:10:00,77.2,73.7,30.02,SE,134,20.0,22.0,89,0.00,,,0.00,Wunderground v.1.15,2013-05-30 05:10:00,
2013-05-30 01:20:00,77.3,74.1,30.02,SE,130,20.0,20.0,90,0.00,,,0.00,Wunderground v.1.15,2013-05-30 05:20:00,
2013-05-30 01:25:00,77.2,74.0,30.02,ESE,121,20.0,21.0,90,0.00,,,0.00,Wunderground v.1.15,2013-05-30 05:25:00,
2013-05-30 01:35:00,77.2,74.0,30.02,SE,130,18.0,19.0,90,0.00,,,0.00,Wunderground v.1.15,2013-05-30 05:35:00,
2013-05-30 01:40:00,77.3,74.1,30.02,SE,133,16.0,19.0,90,0.00,,,0.00,Wunderground v.1.15,2013-05-30 05:40:00,
2013-05-30 01:50:00,77.3,74.1,30.02,ESE,117,15.0,19.0,90,0.00,,,0.00,Wunderground v.1.15,2013-05-30 05:50:00,
2013-05-30 01:55:00,77.2,74.0,30.02,SE,127,16.0,19.0,90,0.00,,,0.00,Wunderground v.1.15,2013-05-30 05:55:00,
2013-05-30 02:05:00,77.3,74.1,30.02,SSE,150,16.0,20.0,90,0.00,,,0.00,Wunderground v.1.15,2013-05-30 06:05:00,
2013-05-30 02:10:00,77.3,74.1,30.01,SSE,148,16.0,20.0,90,0.00,,,0.00,Wunderground v.1.15,2013-05-30 06:10:00,
2013-05-30 02:20:00,77.3,74.5,30.01,SE,134,16.0,16.0,91,0.00,,,0.00,Wunderground v.1.15,2013-05-30 06:20:00,
2013-05-30 02:30:00,77.3,74.1,30.01,SE,126,17.0,18.0,90,0.00,,,0.00,Wunderground v.1.15,2013-05-30 06:30:00,
2013-05-30 02:35:00,77.3,74.1,30.01,SE,130,16.0,18.0,90,0.00,,,0.00,Wunderground v.1.15,2013-05-30 06:35:00,
2013-05-30 02:45:00,77.4,74.2,30.01,ESE,113,18.0,21.0,90,0.00,,,0.00,Wunderground v.1.15,2013-05-30 06:45:00,
2013-05-30 02:50:00,77.4,74.2,30.01,SE,146,20.0,20.0,90,0.00,,,0.00,Wunderground v.1.15,2013-05-30 06:50:00,
2013-05-30 02:55:00,77.5,74.3,30.01,SSE,148,18.0,20.0,90,0.00,,,0.00,Wunderground v.1.15,2013-05-30 06:55:00,
2013-05-30 03:05:00,77.4,74.2,30.01,SE,134,18.0,20.0,90,0.00,,,0.00,Wunderground v.1.15,2013-05-30 07:05:00,
2013-05-30 03:10:00,77.5,74.3,30.00,SE,133,17.0,21.0,90,0.00,,,0.00,Wunderground v.1.15,2013-05-30 07:10:00,
2013-05-30 03:20:00,77.4,74.2,30.00,SE,129,17.0,17.0,90,0.00,,,0.00,Wunderground v.1.15,2013-05-30 07:20:00,
2013-05-30 03:25:00,77.4,74.2,30.00,SE,130,17.0,18.0,90,0.00,,,0.00,Wunderground v.1.15,2013-05-30 07:25:00,
2013-05-30 03:35:00,77.4,74.2,29.99,SE,127,19.0,23.0,90,0.00,,,0.00,Wunderground v.1.15,2013-05-30 07:35:00,
2013-05-30 03:40:00,77.4,74.2,29.99,SE,137,19.0,19.0,90,0.00,,,0.00,Wunderground v.1.15,2013-05-30 07:40:00,
2013-05-30 03:45:00,77.4,74.2,29.99,SE,136,19.0,19.0,90,0.00,,,0.00,Wunderground v.1.15,2013-05-30 07:45:00,
2013-05-30 03:50:00,77.3,74.1,29.99,SSE,158,17.0,17.0,90,0.00,,,0.00,Wunderground v.1.15,2013-05-30 07:50:00,
2013-05-30 04:00:00,77.3,74.5,29.99,SE,137,15.0,19.0,91,0.00,,,0.00,Wunderground v.1.15,2013-05-30 08:00:00,
2013-05-30 04:05:00,77.4,74.2,29.99,SE,136,16.0,19.0,90,0.00,,,0.00,Wunderground v.1.15,2013-05-30 08:05:00,
2013-05-30 04:10:00,77.3,74.1,29.99,SE,144,16.0,16.0,90,0.00,,,0.00,Wunderground v.1.15,2013-05-30 08:10:00,
2013-05-30 04:20:00,77.3,74.1,29.99,SE,139,16.0,22.0,90,0.00,,,0.00,Wunderground v.1.15,2013-05-30 08:20:00,
2013-05-30 04:25:00,77.3,74.1,30.00,SE,146,16.0,22.0,90,0.00,,,0.00,Wunderground v.1.15,2013-05-30 08:25:00,
2013-05-30 04:35:00,77.4,74.2,29.99,SE,133,16.0,16.0,90,0.00,,,0.00,Wunderground v.1.15,2013-05-30 08:35:00,
2013-05-30 04:40:00,77.4,74.2,29.99,SE,132,16.0,16.0,90,0.00,,,0.00,Wunderground v.1.15,2013-05-30 08:40:00,
2013-05-30 04:50:00,77.3,74.1,30.00,SE,124,14.0,20.0,90,0.00,,,0.00,Wunderground v.1.15,2013-05-30 08:50:00,
2013-05-30 04:55:00,77.4,74.2,30.00,SE,131,15.0,20.0,90,0.00,,,0.00,Wunderground v.1.15,2013-05-30 08:55:00,
2013-05-30 05:00:00,77.4,74.2,30.00,SE,128,16.0,16.0,90,0.00,,,0.00,Wunderground v.1.15,2013-05-30 09:00:00,
2013-05-30 05:10:00,77.5,74.0,30.00,SE,126,17.0,17.0,89,0.00,,,0.00,Wunderground v.1.15,2013-05-30 09:10:00,
2013-05-30 05:15:00,77.5,74.0,30.00,SE,126,17.0,17.0,89,0.00,,,0.00,Wunderground v.1.15,2013-05-30 09:15:00,
2013-05-30 05:20:00,77.5,74.0,30.00,SE,134,16.0,24.0,89,0.00,,,0.00,Wunderground v.1.15,2013-05-30 09:20:00,
2013-05-30 05:30:00,77.6,74.4,30.00,SSE,162,16.0,18.0,90,0.00,,,0.00,Wunderground v.1.15,2013-05-30 09:30:00,
2013-05-30 05:35:00,77.5,74.0,30.00,SE,134,16.0,21.0,89,0.00,,,0.00,Wunderground v.1.15,2013-05-30 09:35:00,
2013-05-30 05:40:00,77.6,74.1,30.00,ESE,123,17.0,22.0,89,0.00,,,0.00,Wunderground v.1.15,2013-05-30 09:40:00,
2013-05-30 05:50:00,77.6,74.1,30.00,SSE,151,17.0,17.0,89,0.00,,,0.00,Wunderground v.1.15,2013-05-30 09:50:00,
2013-05-30 05:55:00,77.6,74.1,30.00,SE,124,16.0,21.0,89,0.00,,,0.00,Wunderground v.1.15,2013-05-30 09:55:00,
2013-05-30 06:05:00,77.6,74.1,30.00,SE,130,20.0,21.0,89,0.00,,,0.00,Wunderground v.1.15,2013-05-30 10:05:00,
2013-05-30 06:10:00,77.6,73.8,30.00,SE,133,21.0,21.0,88,0.00,,,0.00,Wunderground v.1.15,2013-05-30 10:10:00,
2013-05-30 06:15:00,77.7,74.2,30.00,SE,124,21.0,21.0,89,0.00,,,0.00,Wunderground v.1.15,2013-05-30 10:15:00,
2013-05-30 06:25:00,77.7,74.5,30.00,ESE,109,18.0,19.0,90,0.00,,,0.00,Wunderground v.1.15,2013-05-30 10:25:00,
2013-05-30 06:30:00,77.5,74.3,30.00,ESE,123,18.0,18.0,90,0.00,,,0.00,Wunderground v.1.15,2013-05-30 10:30:00,
2013-05-30 06:35:00,77.4,74.6,30.01,SE,133,16.0,18.0,91,0.00,,,0.00,Wunderground v.1.15,2013-05-30 10:35:00,
2013-05-30 06:45:00,77.5,74.3,30.01,SE,131,19.0,19.0,90,0.00,,,0.00,Wunderground v.1.15,2013-05-30 10:45:00,
2013-05-30 06:50:00,77.5,74.3,30.01,ESE,123,20.0,20.0,90,0.00,,,0.00,Wunderground v.1.15,2013-05-30 10:50:00,
2013-05-30 06:55:00,77.5,74.0,30.01,SE,128,20.0,23.0,89,0.00,,,0.00,Wunderground v.1.15,2013-05-30 10:55:00,
2013-05-30 07:05:00,77.7,73.9,30.02,SE,127,22.0,23.0,88,0.00,,,0.00,Wunderground v.1.15,2013-05-30 11:05:00,
2013-05-30 07:10:00,77.8,74.0,30.02,SE,127,21.0,25.0,88,0.00,,,0.00,Wunderground v.1.15,2013-05-30 11:10:00,
2013-05-30 07:20:00,77.9,74.4,30.02,ESE,121,21.0,22.0,89,0.00,,,0.00,Wunderground v.1.15,2013-05-30 11:20:00,
2013-05-30 07:25:00,77.9,74.1,30.02,ESE,123,20.0,22.0,88,0.00,,,0.00,Wunderground v.1.15,2013-05-30 11:25:00,
2013-05-30 07:30:00,77.9,74.1,30.02,SE,126,20.0,20.0,88,0.00,,,0.00,Wunderground v.1.15,2013-05-30 11:30:00,
2013-05-30 07:40:00,77.9,74.1,30.03,SE,130,21.0,21.0,88,0.00,,,0.00,Wunderground v.1.15,2013-05-30 11:40:00,
2013-05-30 07:45:00,78.0,74.5,30.03,SE,126,20.0,21.0,89,0.00,,,0.00,Wunderground v.1.15,2013-05-30 11:45:00,
2013-05-30 07:55:00,78.0,74.5,30.03,SE,128,19.0,24.0,89,0.00,,,0.00,Wunderground v.1.15,2013-05-30 11:55:00,
2013-05-30 08:00:00,78.0,74.2,30.03,ESE,117,21.0,24.0,88,0.00,,,0.00,Wunderground v.1.15,2013-05-30 12:00:00,
2013-05-30 08:05:00,78.1,74.3,30.03,ESE,118,23.0,24.0,88,0.00,,,0.00,Wunderground v.1.15,2013-05-30 12:05:00,
2013-05-30 08:10:00,78.2,74.4,30.04,SE,127,23.0,23.0,88,0.00,,,0.00,Wunderground v.1.15,2013-05-30 12:10:00,
2013-05-30 08:20:00,78.3,74.5,30.04,ESE,121,23.0,23.0,88,0.00,,,0.00,Wunderground v.1.15,2013-05-30 12:20:00,
2013-05-30 08:25:00,78.2,74.0,30.03,SE,127,24.0,24.0,87,0.00,,,0.00,Wunderground v.1.15,2013-05-30 12:25:00,
2013-05-30 08:35:00,78.3,74.1,30.04,SE,132,23.0,27.0,87,0.00,,,0.00,Wunderground v.1.15,2013-05-30 12:35:00,
2013-05-30 08:40:00,78.3,74.1,30.04,ESE,114,24.0,24.0,87,0.00,,,0.00,Wunderground v.1.15,2013-05-30 12:40:00,
2013-05-30 08:50:00,78.6,73.7,30.04,SE,130,22.0,22.0,85,0.00,,,0.00,Wunderground v.1.15,2013-05-30 12:50:00,
2013-05-30 08:55:00,78.5,74.0,30.04,ESE,118,23.0,23.0,86,0.00,,,0.00,Wunderground v.1.15,2013-05-30 12:55:00,
2013-05-30 09:00:00,78.5,74.0,30.04,ESE,117,22.0,25.0,86,0.00,,,0.00,Wunderground v.1.15,2013-05-30 13:00:00,
2013-05-30 09:10:00,78.7,74.2,30.04,ESE,122,22.0,22.0,86,0.00,,,0.00,Wunderground v.1.15,2013-05-30 13:10:00,
2013-05-30 09:15:00,78.9,74.4,30.04,ESE,117,23.0,23.0,86,0.00,,,0.00,Wunderground v.1.15,2013-05-30 13:15:00,
2013-05-30 09:20:00,78.8,74.3,30.04,ESE,119,23.0,23.0,86,0.00,,,0.00,Wunderground v.1.15,2013-05-30 13:20:00,
2013-05-30 09:25:00,78.9,74.0,30.05,SE,127,23.0,23.0,85,0.00,,,0.00,Wunderground v.1.15,2013-05-30 13:25:00,
2013-05-30 09:35:00,79.4,74.8,30.05,SE,136,21.0,22.0,86,0.00,,,0.00,Wunderground v.1.15,2013-05-30 13:35:00,
2013-05-30 09:40:00,79.3,74.7,30.05,SE,125,21.0,24.0,86,0.00,,,0.00,Wunderground v.1.15,2013-05-30 13:40:00,
2013-05-30 09:50:00,79.1,74.5,30.05,ESE,115,23.0,23.0,86,0.00,,,0.00,Wunderground v.1.15,2013-05-30 13:50:00,
2013-05-30 09:55:00,79.0,74.5,30.05,ESE,119,23.0,23.0,86,0.00,,,0.00,Wunderground v.1.15,2013-05-30 13:55:00,
2013-05-30 10:00:00,78.9,74.4,30.06,SE,135,22.0,22.0,86,0.00,,,0.00,Wunderground v.1.15,2013-05-30 14:00:00,
2013-05-30 10:05:00,78.7,74.5,30.05,SE,132,22.0,22.0,87,0.00,,,0.00,Wunderground v.1.15,2013-05-30 14:05:00,
2013-05-30 10:15:00,79.1,74.5,30.05,ESE,122,22.0,28.0,86,0.00,,,0.00,Wunderground v.1.15,2013-05-30 14:15:00,
2013-05-30 10:20:00,79.2,74.6,30.05,SE,130,23.0,23.0,86,0.00,,,0.00,Wunderground v.1.15,2013-05-30 14:20:00,
2013-05-30 10:25:00,79.2,74.3,30.05,ESE,113,24.0,24.0,85,0.00,,,0.00,Wunderground v.1.15,2013-05-30 14:25:00,
2013-05-30 10:35:00,79.4,74.5,30.05,ESE,120,23.0,27.0,85,0.00,,,0.00,Wunderground v.1.15,2013-05-30 14:35:00,
2013-05-30 10:40:00,79.4,74.5,30.05,SE,136,24.0,31.0,85,0.00,,,0.00,Wunderground v.1.15,2013-05-30 14:40:00,
2013-05-30 10:50:00,79.3,74.7,30.05,ESE,123,25.0,28.0,86,0.00,,,0.00,Wunderground v.1.15,2013-05-30 14:50:00,
2013-05-30 10:55:00,79.3,74.4,30.05,ESE,110,25.0,28.0,85,0.00,,,0.00,Wunderground v.1.15,2013-05-30 14:55:00,
2013-05-30 11:00:00,79.5,74.9,30.05,ESE,115,24.0,24.0,86,0.00,,,0.00,Wunderground v.1.15,2013-05-30 15:00:00,
2013-05-30 11:05:00,79.6,74.7,30.05,ESE,115,23.0,24.0,85,0.00,,,0.00,Wunderground v.1.15,2013-05-30 15:05:00,
2013-05-30 11:10:00,79.3,74.4,30.05,ESE,121,23.0,23.0,85,0.00,,,0.00,Wunderground v.1.15,2013-05-30 15:10:00,
2013-05-30 11:20:00,79.4,74.8,30.05,SE,133,24.0,27.0,86,0.00,,,0.00,Wunderground v.1.15,2013-05-30 15:20:00,
2013-05-30 11:25:00,79.6,74.3,30.06,ESE,111,24.0,27.0,84,0.00,,,0.00,Wunderground v.1.15,2013-05-30 15:25:00,
2013-05-30 11:35:00,79.4,74.5,30.06,ESE,118,24.0,25.0,85,0.00,,,0.00,Wunderground v.1.15,2013-05-30 15:35:00,
2013-05-30 11:45:00,79.4,74.5,30.07,ESE,121,23.0,24.0,85,0.00,,,0.00,Wunderground v.1.15,2013-05-30 15:45:00,
2013-05-30 11:50:00,79.5,74.9,30.07,SE,127,22.0,22.0,86,0.00,,,0.00,Wunderground v.1.15,2013-05-30 15:50:00,
2013-05-30 11:55:00,79.6,74.7,30.07,ESE,120,22.0,22.0,85,0.00,,,0.00,Wunderground v.1.15,2013-05-30 15:55:00,
2013-05-30 12:00:00,79.4,74.5,30.07,ESE,116,22.0,24.0,85,0.00,,,0.00,Wunderground v.1.15,2013-05-30 16:00:00,
2013-05-30 12:10:00,79.3,74.7,30.07,ESE,115,24.0,26.0,86,0.00,,,0.00,Wunderground v.1.15,2013-05-30 16:10:00,
2013-05-30 12:15:00,79.6,74.7,30.07,ESE,106,24.0,26.0,85,0.00,,,0.00,Wunderground v.1.15,2013-05-30 16:15:00,
2013-05-30 12:20:00,79.7,75.1,30.07,SE,126,22.0,22.0,86,0.00,,,0.00,Wunderground v.1.15,2013-05-30 16:20:00,
2013-05-30 12:25:00,79.7,74.8,30.07,ESE,119,21.0,22.0,85,0.00,,,0.00,Wunderground v.1.15,2013-05-30 16:25:00,
2013-05-30 12:35:00,79.7,75.1,30.06,ESE,111,22.0,24.0,86,0.00,,,0.00,Wunderground v.1.15,2013-05-30 16:35:00,
2013-05-30 12:40:00,79.6,75.0,30.06,SE,132,22.0,22.0,86,0.00,,,0.00,Wunderground v.1.15,2013-05-30 16:40:00,
2013-05-30 12:50:00,79.7,74.8,30.05,ESE,115,24.0,26.0,85,0.00,,,0.00,Wunderground v.1.15,2013-05-30 16:50:00,
2013-05-30 12:55:00,79.6,74.7,30.05,ESE,115,26.0,26.0,85,0.00,,,0.00,Wunderground v.1.15,2013-05-30 16:55:00,
2013-05-30 13:05:00,79.7,74.8,30.04,ESE,121,25.0,32.0,85,0.00,,,0.00,Wunderground v.1.15,2013-05-30 17:05:00,
2013-05-30 13:10:00,79.8,75.2,30.04,ESE,107,26.0,26.0,86,0.00,,,0.00,Wunderground v.1.15,2013-05-30 17:10:00,
2013-05-30 13:15:00,79.6,74.7,30.04,ESE,119,26.0,33.0,85,0.00,,,0.00,Wunderground v.1.15,2013-05-30 17:15:00,
2013-05-30 13:25:00,79.8,74.9,30.04,ESE,110,24.0,28.0,85,0.00,,,0.00,Wunderground v.1.15,2013-05-30 17:25:00,
2013-05-30 13:30:00,79.6,75.0,30.05,SE,130,25.0,25.0,86,0.00,,,0.00,Wunderground v.1.15,2013-05-30 17:30:00,
2013-05-30 13:35:00,79.5,74.6,30.05,ESE,122,25.0,25.0,85,0.00,,,0.00,Wunderground v.1.15,2013-05-30 17:35:00,
2013-05-30 13:40:00,79.8,75.2,30.05,ESE,113,25.0,25.0,86,0.00,,,0.00,Wunderground v.1.15,2013-05-30 17:40:00,
2013-05-30 13:50:00,79.6,75.0,30.04,ESE,105,25.0,31.0,86,0.00,,,0.00,Wunderground v.1.15,2013-05-30 17:50:00,
2013-05-30 13:55:00,79.5,74.6,30.04,ESE,121,25.0,31.0,85,0.00,,,0.00,Wunderground v.1.15,2013-05-30 17:55:00,
2013-05-30 14:05:00,79.7,74.8,30.05,ESE,117,23.0,27.0,85,0.00,,,0.00,Wunderground v.1.15,2013-05-30 18:05:00,
2013-05-30 14:10:00,79.8,75.2,30.05,ESE,119,22.0,22.0,86,0.00,,,0.00,Wunderground v.1.15,2013-05-30 18:10:00,
2013-05-30 14:20:00,79.9,75.0,30.06,ESE,115,20.0,23.0,85,0.00,,,0.00,Wunderground v.1.15,2013-05-30 18:20:00,
2013-05-30 14:25:00,79.7,74.8,30.05,SE,126,21.0,27.0,85,0.00,,,0.00,Wunderground v.1.15,2013-05-30 18:25:00,
2013-05-30 14:35:00,79.6,74.7,30.05,ESE,109,22.0,22.0,85,0.00,,,0.00,Wunderground v.1.15,2013-05-30 18:35:00,
2013-05-30 14:40:00,79.5,74.2,30.05,ESE,113,22.0,24.0,84,0.00,,,0.00,Wunderground v.1.15,2013-05-30 18:40:00,
2013-05-30 14:45:00,79.5,74.2,30.04,SE,134,24.0,24.0,84,0.00,,,0.00,Wunderground v.1.15,2013-05-30 18:45:00,
2013-05-30 14:50:00,79.7,74.8,30.04,ESE,121,24.0,25.0,85,0.00,,,0.00,Wunderground v.1.15,2013-05-30 18:50:00,
2013-05-30 14:55:00,79.8,75.2,30.04,ESE,121,23.0,25.0,86,0.00,,,0.00,Wunderground v.1.15,2013-05-30 18:55:00,
2013-05-30 15:05:00,79.6,74.7,30.04,SE,125,24.0,29.0,85,0.00,,,0.00,Wunderground v.1.15,2013-05-30 19:05:00,
2013-05-30 15:10:00,79.8,74.5,30.04,ESE,121,23.0,24.0,84,0.00,,,0.00,Wunderground v.1.15,2013-05-30 19:10:00,
2013-05-30 15:20:00,79.7,75.1,30.03,ESE,110,24.0,24.0,86,0.00,,,0.00,Wunderground v.1.15,2013-05-30 19:20:00,
2013-05-30 15:25:00,79.8,74.9,30.03,ESE,115,24.0,26.0,85,0.00,,,0.00,Wunderground v.1.15,2013-05-30 19:25:00,
2013-05-30 15:35:00,79.7,74.8,30.02,ESE,112,25.0,26.0,85,0.00,,,0.00,Wunderground v.1.15,2013-05-30 19:35:00,
2013-05-30 15:40:00,79.9,75.0,30.02,SE,128,24.0,24.0,85,0.00,,,0.00,Wunderground v.1.15,2013-05-30 19:40:00,
2013-05-30 15:45:00,80.0,75.4,30.02,SE,136,24.0,25.0,86,0.00,,,0.00,Wunderground v.1.15,2013-05-30 19:45:00,
2013-05-30 15:55:00,79.8,74.9,30.02,ESE,116,25.0,29.0,85,0.00,,,0.00,Wunderground v.1.15,2013-05-30 19:55:00,
2013-05-30 16:00:00,79.7,74.4,30.02,ESE,112,26.0,29.0,84,0.00,,,0.00,Wunderground v.1.15,2013-05-30 20:00:00,
2013-05-30 16:05:00,79.7,74.8,30.02,ESE,122,26.0,29.0,85,0.00,,,0.00,Wunderground v.1.15,2013-05-30 20:05:00,
2013-05-30 16:10:00,79.7,75.1,30.01,ESE,118,26.0,27.0,86,0.00,,,0.00,Wunderground v.1.15,2013-05-30 20:10:00,
2013-05-30 16:20:00,79.6,74.3,30.01,ESE,103,25.0,25.0,84,0.00,,,0.00,Wunderground v.1.15,2013-05-30 20:20:00,
2013-05-30 16:25:00,79.7,74.8,30.01,ESE,117,25.0,25.0,85,0.00,,,0.00,Wunderground v.1.15,2013-05-30 20:25:00,
2013-05-30 16:35:00,79.6,75.0,30.01,ESE,109,25.0,28.0,86,0.00,,,0.00,Wunderground v.1.15,2013-05-30 20:35:00,
2013-05-30 16:45:00,79.8,74.5,30.01,SE,133,24.0,25.0,84,0.00,,,0.00,Wunderground v.1.15,2013-05-30 20:45:00,
2013-05-30 16:50:00,79.6,74.3,30.01,ESE,114,25.0,25.0,84,0.00,,,0.00,Wunderground v.1.15,2013-05-30 20:50:00,
2013-05-30 16:55:00,79.7,74.8,30.01,ESE,121,25.0,27.0,85,0.00,,,0.00,Wunderground v.1.15,2013-05-30 20:55:00,
2013-05-30 17:05:00,79.7,75.1,30.01,ESE,110,23.0,29.0,86,0.00,,,0.00,Wunderground v.1.15,2013-05-30 21:05:00,
2013-05-30 17:10:00,79.9,75.0,30.02,ESE,105,23.0,23.0,85,0.00,,,0.00,Wunderground v.1.15,2013-05-30 21:10:00,
2013-05-30 17:20:00,79.6,74.7,30.02,SE,126,24.0,24.0,85,0.00,,,0.00,Wunderground v.1.15,2013-05-30 21:20:00,
2013-05-30 17:30:00,79.5,74.6,30.01,ESE,118,23.0,27.0,85,0.00,,,0.00,Wunderground v.1.15,2013-05-30 21:30:00,
2013-05-30 17:35:00,79.8,75.2,30.01,ESE,104,23.0,27.0,86,0.00,,,0.00,Wunderground v.1.15,2013-05-30 21:35:00,
2013-05-30 17:45:00,79.5,75.3,30.01,ESE,116,23.0,25.0,87,0.00,,,0.00,Wunderground v.1.15,2013-05-30 21:45:00,
2013-05-30 17:50:00,79.5,74.9,30.01,ESE,105,22.0,25.0,86,0.00,,,0.00,Wunderground v.1.15,2013-05-30 21:50:00,
2013-05-30 17:55:00,79.3,75.1,30.01,SE,128,22.0,25.0,87,0.00,,,0.00,Wunderground v.1.15,2013-05-30 21:55:00,
2013-05-30 18:05:00,79.3,75.1,30.01,SE,124,22.0,23.0,87,0.00,,,0.00,Wunderground v.1.15,2013-05-30 22:05:00,
2013-05-30 18:10:00,79.6,75.4,30.01,SE,136,22.0,22.0,87,0.00,,,0.00,Wunderground v.1.15,2013-05-30 22:10:00,
2013-05-30 18:20:00,79.1,74.9,30.01,SE,134,23.0,23.0,87,0.00,,,0.00,Wunderground v.1.15,2013-05-30 22:20:00,
2013-05-30 18:25:00,79.4,75.2,30.00,ESE,111,24.0,24.0,87,0.00,,,0.00,Wunderground v.1.15,2013-05-30 22:25:00,
2013-05-30 18:35:00,79.3,75.1,30.01,ESE,108,21.0,28.0,87,0.00,,,0.00,Wunderground v.1.15,2013-05-30 22:35:00,
2013-05-30 18:40:00,79.2,74.6,30.01,ESE,114,22.0,22.0,86,0.00,,,0.00,Wunderground v.1.15,2013-05-30 22:40:00,
2013-05-30 18:45:00,79.1,74.5,30.00,ESE,121,23.0,23.0,86,0.00,,,0.00,Wunderground v.1.15,2013-05-30 22:45:00,
2013-05-30 18:50:00,79.2,75.0,30.00,SE,125,23.0,23.0,87,0.00,,,0.00,Wunderground v.1.15,2013-05-30 22:50:00,
2013-05-30 19:00:00,78.8,74.6,30.00,SE,125,22.0,24.0,87,0.00,,,0.00,Wunderground v.1.15,2013-05-30 23:00:00,
2013-05-30 19:05:00,78.7,74.5,30.00,SE,126,23.0,24.0,87,0.00,,,0.00,Wunderground v.1.15,2013-05-30 23:05:00,
2013-05-30 19:10:00,78.8,74.9,30.00,ESE,106,24.0,26.0,88,0.00,,,0.00,Wunderground v.1.15,2013-05-30 23:10:00,
2013-05-30 19:20:00,78.9,75.0,29.99,ESE,107,23.0,26.0,88,0.00,,,0.00,Wunderground v.1.15,2013-05-30 23:20:00,
2013-05-30 19:25:00,78.7,74.8,30.00,SE,126,22.0,26.0,88,0.00,,,0.00,Wunderground v.1.15,2013-05-30 23:25:00,
2013-05-30 19:35:00,78.5,74.6,29.99,ESE,117,22.0,27.0,88,0.00,,,0.00,Wunderground v.1.15,2013-05-30 23:35:00,
2013-05-30 19:40:00,78.5,74.6,30.00,East,101,22.0,22.0,88,0.00,,,0.00,Wunderground v.1.15,2013-05-30 23:40:00,
2013-05-30 19:50:00,78.4,74.5,30.00,SE,140,24.0,24.0,88,0.00,,,0.00,Wunderground v.1.15,2013-05-30 23:50:00,
2013-05-30 19:55:00,78.5,75.0,30.00,SE,128,23.0,24.0,89,0.00,,,0.00,Wunderground v.1.15,2013-05-30 23:55:00,
2013-05-30 20:00:00,78.4,74.9,30.00,ESE,105,22.0,24.0,89,0.00,,,0.00,Wunderground v.1.15,2013-05-31 00:00:00,
2013-05-30 20:10:00,78.3,74.5,30.00,SE,126,22.0,22.0,88,0.00,,,0.00,Wunderground v.1.15,2013-05-31 00:10:00,
2013-05-30 20:15:00,78.2,74.4,30.00,SE,124,23.0,27.0,88,0.00,,,0.00,Wunderground v.1.15,2013-05-31 00:15:00,
2013-05-30 20:20:00,78.3,74.8,30.00,ESE,109,24.0,29.0,89,0.00,,,0.00,Wunderground v.1.15,2013-05-31 00:20:00,
2013-05-30 20:30:00,78.2,74.7,30.00,ESE,121,24.0,24.0,89,0.00,,,0.00,Wunderground v.1.15,2013-05-31 00:30:00,
2013-05-30 20:35:00,78.2,74.7,30.00,ESE,113,23.0,24.0,89,0.00,,,0.00,Wunderground v.1.15,2013-05-31 00:35:00,
2013-05-30 20:40:00,78.2,74.7,30.00,SE,126,22.0,27.0,89,0.00,,,0.00,Wunderground v.1.15,2013-05-31 00:40:00,
2013-05-30 20:50:00,78.1,74.6,30.00,SE,127,24.0,24.0,89,0.00,,,0.00,Wunderground v.1.15,2013-05-31 00:50:00,
2013-05-30 20:55:00,78.0,74.2,30.00,SE,128,24.0,28.0,88,0.00,,,0.00,Wunderground v.1.15,2013-05-31 00:55:00,
2013-05-30 21:05:00,78.0,74.2,30.00,SE,140,24.0,29.0,88,0.00,,,0.00,Wunderground v.1.15,2013-05-31 01:05:00,
2013-05-30 21:10:00,78.1,74.3,30.00,SE,134,25.0,25.0,88,0.00,,,0.00,Wunderground v.1.15,2013-05-31 01:10:00,
2013-05-30 21:20:00,78.2,74.0,30.00,ESE,123,27.0,27.0,87,0.00,,,0.00,Wunderground v.1.15,2013-05-31 01:20:00,
2013-05-30 21:25:00,78.2,74.0,30.00,SE,127,25.0,27.0,87,0.00,,,0.00,Wunderground v.1.15,2013-05-31 01:25:00,
2013-05-30 21:35:00,78.2,74.0,30.00,ESE,117,24.0,28.0,87,0.00,,,0.00,Wunderground v.1.15,2013-05-31 01:35:00,
2013-05-30 21:40:00,78.3,74.1,30.00,SE,131,24.0,27.0,87,0.00,,,0.00,Wunderground v.1.15,2013-05-31 01:40:00,
2013-05-30 21:45:00,78.2,74.0,30.00,SE,132,25.0,27.0,87,0.00,,,0.00,Wunderground v.1.15,2013-05-31 01:45:00,
2013-05-30 21:50:00,78.2,74.4,30.00,SE,128,25.0,25.0,88,0.00,,,0.00,Wunderground v.1.15,2013-05-31 01:50:00,
2013-05-30 22:00:00,78.2,74.4,30.01,SE,130,23.0,23.0,88,0.00,,,0.00,Wunderground v.1.15,2013-05-31 02:00:00,
2013-05-30 22:05:00,78.2,74.0,30.01,SE,130,23.0,24.0,87,0.00,,,0.00,Wunderground v.1.15,2013-05-31 02:05:00,
2013-05-30 22:15:00,78.3,74.1,30.00,SE,134,23.0,28.0,87,0.00,,,0.00,Wunderground v.1.15,2013-05-31 02:15:00,
2013-05-30 22:20:00,78.3,74.5,30.00,SE,125,23.0,23.0,88,0.00,,,0.00,Wunderground v.1.15,2013-05-31 02:20:00,
2013-05-30 22:25:00,78.2,74.0,30.00,ESE,123,23.0,27.0,87,0.00,,,0.00,Wunderground v.1.15,2013-05-31 02:25:00,
2013-05-30 22:35:00,78.2,74.0,30.01,ESE,120,25.0,29.0,87,0.00,,,0.00,Wunderground v.1.15,2013-05-31 02:35:00,
2013-05-30 22:40:00,78.3,74.5,30.01,SE,128,25.0,27.0,88,0.00,,,0.00,Wunderground v.1.15,2013-05-31 02:40:00,
2013-05-30 22:50:00,78.2,74.4,30.02,SE,134,23.0,23.0,88,0.00,,,0.00,Wunderground v.1.15,2013-05-31 02:50:00,
2013-05-30 22:55:00,78.3,74.5,30.02,ESE,119,22.0,23.0,88,0.00,,,0.00,Wunderground v.1.15,2013-05-31 02:55:00,
2013-05-30 23:00:00,78.2,74.4,30.02,SE,128,22.0,22.0,88,0.00,,,0.00,Wunderground v.1.15,2013-05-31 03:00:00,
2013-05-30 23:10:00,78.3,74.5,30.03,ESE,112,23.0,26.0,88,0.00,,,0.00,Wunderground v.1.15,2013-05-31 03:10:00,
2013-05-30 23:15:00,78.3,74.5,30.03,ESE,115,23.0,26.0,88,0.00,,,0.00,Wunderground v.1.15,2013-05-31 03:15:00,
2013-05-30 23:20:00,78.2,74.4,30.03,ESE,123,23.0,27.0,88,0.00,,,0.00,Wunderground v.1.15,2013-05-31 03:20:00,
2013-05-30 23:30:00,78.4,74.5,30.03,ESE,123,22.0,25.0,88,0.00,,,0.00,Wunderground v.1.15,2013-05-31 03:30:00,
2013-05-30 23:35:00,78.4,74.5,30.03,ESE,121,22.0,25.0,88,0.00,,,0.00,Wunderground v.1.15,2013-05-31 03:35:00,
2013-05-30 23:40:00,78.4,74.5,30.03,ESE,119,21.0,23.0,88,0.00,,,0.00,Wunderground v.1.15,2013-05-31 03:40:00,
2013-05-30 23:50:00,78.3,74.5,30.03,ESE,123,22.0,22.0,88,0.00,,,0.00,Wunderground v.1.15,2013-05-31 03:50:00,
2013-05-30 23:55:00,78.3,74.1,30.03,SSE,160,22.0,22.0,87,0.00,,,0.00,Wunderground v.1.15,2013-05-31 03:55:00,